| time (UTC) | temp F | wind direction | speed knots | gust knots | rain 1hr in | rain 24hr in | rain mn in | humidity % | barometer mb |
| 20260506191354 | 57 | 6 | 2.6 | 7.0 | 0.00 | 0.04 | 0.04 | 77 | 1014.5 |
| 20260506190843 | 57 | 2 | 1.7 | 7.0 | 0.00 | 0.04 | 0.04 | 77 | 1014.7 |
| 20260506190333 | 57 | 352 | 2.6 | 7.0 | 0.00 | 0.04 | 0.04 | 78 | 1014.7 |
| 20260506185823 | 57 | 334 | 2.6 | 8.7 | 0.00 | 0.04 | 0.04 | 77 | 1014.7 |
| 20260506185806 | 57 | 267 | 1.7 | 8.7 | 0.00 | 0.04 | 0.04 | 77 | 1014.7 |
| 20260506184805 | 57 | 267 | 1.7 | 6.1 | 0.00 | 0.04 | 0.04 | 77 | 1014.7 |
| 20260506184257 | 56 | 267 | 2.6 | 6.1 | 0.00 | 0.04 | 0.04 | 77 | 1014.7 |
| 20260506183745 | 56 | 24 | 2.6 | 6.1 | 0.00 | 0.04 | 0.04 | 77 | 1014.7 |
| 20260506183235 | 56 | 267 | 3.5 | 9.6 | 0.00 | 0.04 | 0.04 | 78 | 1014.7 |
| 20260506182727 | 56 | 267 | 3.5 | 9.6 | 0.00 | 0.04 | 0.04 | 77 | 1014.4 |
| 20260506182215 | 56 | 267 | 3.5 | 10.4 | 0.00 | 0.04 | 0.04 | 78 | 1014.0 |
| 20260506181705 | 56 | 30 | 5.2 | 14.8 | 0.00 | 0.04 | 0.04 | 78 | 1013.8 |
| 20260506181147 | 56 | 267 | 6.1 | 14.8 | 0.00 | 0.04 | 0.04 | 78 | 1013.5 |
| 20260506180638 | 56 | 267 | 7.8 | 14.8 | 0.00 | 0.04 | 0.04 | 79 | 1013.0 |
| 20260506180127 | 56 | 267 | 7.0 | 14.8 | 0.00 | 0.04 | 0.04 | 79 | 1013.0 |
| 20260506175617 | 56 | 267 | 6.1 | 13.0 | 0.00 | 0.04 | 0.04 | 80 | 1013.1 |
| 20260506175107 | 56 | 267 | 6.1 | 13.0 | 0.00 | 0.04 | 0.04 | 81 | 1013.4 |
| 20260506174557 | 55 | 357 | 7.0 | 13.0 | 0.00 | 0.04 | 0.04 | 82 | 1013.1 |
| 20260506174047 | 54 | 26 | 7.0 | 13.0 | 0.00 | 0.04 | 0.04 | 82 | 1013.4 |
| 20260506173537 | 54 | 33 | 5.2 | 10.4 | 0.00 | 0.04 | 0.04 | 82 | 1013.8 |
| 20260506173027 | 54 | 11 | 5.2 | 10.4 | 0.00 | 0.04 | 0.04 | 82 | 1014.1 |
| 20260506172517 | 54 | 19 | 6.1 | 12.2 | 0.00 | 0.04 | 0.04 | 83 | 1014.0 |
| 20260506172007 | 54 | 57 | 5.2 | 12.2 | 0.00 | 0.04 | 0.04 | 83 | 1014.0 |
| 20260506171449 | 54 | 23 | 5.2 | 10.4 | 0.00 | 0.04 | 0.04 | 83 | 1013.9 |
| 20260506170939 | 54 | 20 | 5.2 | 11.3 | 0.00 | 0.04 | 0.04 | 83 | 1013.9 |
| 20260506170429 | 54 | 30 | 4.3 | 11.3 | 0.00 | 0.04 | 0.04 | 83 | 1014.1 |
| 20260506170414 | 54 | 22 | 4.3 | 10.4 | 0.00 | 0.04 | 0.04 | 83 | 1014.1 |
| 20260506165403 | 54 | 76 | 5.2 | 13.0 | 0.00 | 0.04 | 0.04 | 83 | 1014.1 |
| 20260506164853 | 54 | 58 | 4.3 | 13.0 | 0.00 | 0.04 | 0.04 | 83 | 1014.1 |
| 20260506164342 | 54 | 31 | 5.2 | 12.2 | 0.00 | 0.04 | 0.04 | 83 | 1014.1 |
| 20260506163833 | 54 | 62 | 7.0 | 12.2 | 0.00 | 0.04 | 0.04 | 83 | 1013.7 |
| 20260506163323 | 54 | 350 | 5.2 | 10.4 | 0.00 | 0.04 | 0.04 | 83 | 1013.9 |
| 20260506162813 | 54 | 49 | 5.2 | 12.2 | 0.00 | 0.04 | 0.04 | 83 | 1014.0 |
| 20260506162306 | 54 | 22 | 5.2 | 12.2 | 0.00 | 0.04 | 0.04 | 83 | 1014.0 |
| 20260506161804 | 54 | 26 | 5.2 | 11.3 | 0.00 | 0.04 | 0.04 | 83 | 1014.1 |
| 20260506161253 | 54 | 37 | 5.2 | 11.3 | 0.00 | 0.04 | 0.04 | 83 | 1014.0 |
| 20260506160737 | 55 | 68 | 5.2 | 10.4 | 0.03 | 0.04 | 0.04 | 84 | 1014.0 |
| 20260506160222 | 54 | 9 | 4.3 | 9.6 | 0.04 | 0.04 | 0.04 | 83 | 1014.2 |
| 20260506155713 | 54 | 20 | 4.3 | 7.8 | 0.04 | 0.04 | 0.04 | 83 | 1014.2 |
| 20260506155203 | 54 | 347 | 3.5 | 8.7 | 0.04 | 0.04 | 0.04 | 83 | 1014.6 |
| 20260506154653 | 55 | 10 | 4.3 | 12.2 | 0.04 | 0.04 | 0.04 | 84 | 1014.0 |
| 20260506154143 | 54 | 31 | 5.2 | 12.2 | 0.04 | 0.04 | 0.04 | 83 | 1013.5 |
| 20260506153633 | 53 | 52 | 5.2 | 10.4 | 0.04 | 0.04 | 0.04 | 82 | 1013.4 |
| 20260506153123 | 53 | 91 | 6.1 | 11.3 | 0.04 | 0.04 | 0.04 | 82 | 1013.3 |
| 20260506152613 | 53 | 72 | 6.1 | 11.3 | 0.04 | 0.04 | 0.04 | 81 | 1013.2 |
| 20260506152102 | 53 | 57 | 3.5 | 10.4 | 0.04 | 0.04 | 0.04 | 81 | 1014.1 |
| 20260506151602 | 53 | 57 | 3.5 | 10.4 | 0.04 | 0.04 | 0.04 | 80 | 1015.2 |
| 20260506151224 | 54 | 24 | 2.6 | 8.7 | 0.00 | 0.00 | 0.00 | 78 | 1015.7 |
| 20260506151107 | 54 | 79 | 3.5 | 9.6 | 0.00 | 0.00 | 0.01 | 79 | 1014.1 |
| 20260506151102 | 54 | 46 | 4.3 | 10.4 | 0.03 | 0.03 | 0.03 | 80 | 1014.8 |
| 20260506145554 | 54 | 340 | 2.6 | 7.8 | 0.00 | 0.00 | 0.00 | 78 | 1015.4 |
| 20260506145044 | 54 | 359 | 2.6 | 7.8 | 0.00 | 0.00 | 0.00 | 78 | 1015.8 |
| 20260506144541 | 54 | 10 | 2.6 | 8.7 | 0.00 | 0.00 | 0.00 | 77 | 1015.3 |
| 20260506144031 | 54 | 338 | 3.5 | 12.2 | 0.00 | 0.00 | 0.00 | 77 | 1015.3 |
| 20260506143521 | 54 | 352 | 5.2 | 12.2 | 0.00 | 0.00 | 0.00 | 77 | 1015.8 |
| 20260506143011 | 54 | 18 | 7.0 | 13.9 | 0.00 | 0.00 | 0.00 | 76 | 1013.4 |
| 20260506142501 | 54 | 35 | 6.1 | 13.9 | 0.00 | 0.00 | 0.00 | 76 | 1013.8 |
| 20260506141951 | 54 | 54 | 5.2 | 12.2 | 0.00 | 0.00 | 0.00 | 76 | 1013.8 |
| 20260506141942 | 54 | 8 | 6.1 | 12.2 | 0.00 | 0.00 | 0.00 | 76 | 1014.1 |
| 20260506140931 | 54 | 359 | 6.1 | 11.3 | 0.00 | 0.00 | 0.00 | 76 | 1014.3 |
| 20260506140424 | 54 | 357 | 5.2 | 11.3 | 0.00 | 0.00 | 0.00 | 76 | 1014.2 |
| 20260506135922 | 54 | 350 | 5.2 | 11.3 | 0.00 | 0.00 | 0.00 | 75 | 1013.9 |
| 20260506135421 | 54 | 18 | 4.3 | 10.4 | 0.00 | 0.00 | 0.00 | 75 | 1014.1 |
| 20260506134911 | 54 | 353 | 4.3 | 9.6 | 0.00 | 0.00 | 0.00 | 75 | 1014.0 |
| 20260506134401 | 54 | 26 | 6.1 | 13.9 | 0.00 | 0.00 | 0.00 | 75 | 1013.5 |
| 20260506134352 | 54 | 30 | 7.0 | 13.0 | 0.00 | 0.00 | 0.00 | 75 | 1013.4 |
| 20260506133340 | 54 | 40 | 6.1 | 13.0 | 0.00 | 0.00 | 0.00 | 74 | 1013.6 |
| 20260506132831 | 54 | 357 | 6.1 | 14.8 | 0.00 | 0.00 | 0.00 | 74 | 1013.3 |
| 20260506132320 | 54 | 7 | 6.1 | 14.8 | 0.00 | 0.00 | 0.00 | 74 | 1013.3 |
| 20260506131809 | 54 | 29 | 7.0 | 14.8 | 0.00 | 0.00 | 0.00 | 74 | 1013.2 |
| 20260506131259 | 54 | 37 | 7.0 | 14.8 | 0.00 | 0.00 | 0.00 | 73 | 1013.1 |
| 20260506130747 | 55 | 20 | 7.0 | 12.2 | 0.00 | 0.00 | 0.00 | 73 | 1012.9 |
| 20260506130738 | 55 | 12 | 7.0 | 12.2 | 0.00 | 0.00 | 0.00 | 72 | 1012.7 |
| 20260506125729 | 55 | 33 | 6.1 | 13.9 | 0.00 | 0.00 | 0.00 | 72 | 1012.8 |
| 20260506125219 | 55 | 359 | 6.1 | 13.9 | 0.00 | 0.00 | 0.00 | 72 | 1012.8 |
| 20260506124709 | 55 | 20 | 5.2 | 8.7 | 0.00 | 0.00 | 0.00 | 72 | 1012.7 |
| 20260506124201 | 55 | 9 | 5.2 | 9.6 | 0.00 | 0.00 | 0.00 | 71 | 1012.8 |
| 20260506123653 | 55 | 355 | 5.2 | 10.4 | 0.00 | 0.00 | 0.00 | 71 | 1012.6 |
| 20260506123147 | 55 | 23 | 6.1 | 12.2 | 0.00 | 0.00 | 0.00 | 72 | 1012.7 |
| 20260506122646 | 55 | 10 | 7.0 | 15.6 | 0.00 | 0.00 | 0.00 | 71 | 1012.6 |
| 20260506122136 | 55 | 31 | 7.0 | 15.6 | 0.00 | 0.00 | 0.00 | 71 | 1012.3 |
| 20260506121631 | 56 | 21 | 6.1 | 11.3 | 0.00 | 0.00 | 0.00 | 71 | 1012.3 |
| 20260506121126 | 56 | 355 | 6.1 | 13.9 | 0.00 | 0.00 | 0.00 | 71 | 1012.3 |
| 20260506120625 | 56 | 5 | 5.2 | 13.9 | 0.00 | 0.00 | 0.00 | 71 | 1012.4 |
| 20260506120124 | 56 | 354 | 3.5 | 11.3 | 0.00 | 0.00 | 0.00 | 71 | 1012.2 |
| 20260506115626 | 56 | 9 | 4.3 | 11.3 | 0.00 | 0.00 | 0.00 | 71 | 1012.2 |
| 20260506115119 | 56 | 12 | 4.3 | 11.3 | 0.00 | 0.00 | 0.00 | 71 | 1012.3 |
| 20260506114615 | 56 | 328 | 3.5 | 10.4 | 0.00 | 0.00 | 0.00 | 71 | 1012.1 |
| 20260506114111 | 56 | 349 | 4.3 | 10.4 | 0.00 | 0.00 | 0.00 | 71 | 1012.0 |
| 20260506113602 | 56 | 19 | 4.3 | 10.4 | 0.00 | 0.00 | 0.00 | 71 | 1012.0 |
| 20260506113055 | 56 | 10 | 4.3 | 8.7 | 0.00 | 0.00 | 0.00 | 71 | 1011.6 |
| 20260506112551 | 57 | 9 | 4.3 | 13.9 | 0.00 | 0.00 | 0.00 | 71 | 1011.7 |
| 20260506112042 | 57 | 22 | 4.3 | 13.9 | 0.00 | 0.00 | 0.00 | 71 | 1011.7 |
| 20260506111539 | 57 | 8 | 5.2 | 12.2 | 0.00 | 0.00 | 0.00 | 71 | 1011.4 |
| 20260506111036 | 57 | 353 | 4.3 | 12.2 | 0.00 | 0.00 | 0.00 | 71 | 1011.4 |
| 20260506110532 | 57 | 340 | 4.3 | 11.3 | 0.00 | 0.00 | 0.00 | 71 | 1011.4 |
| 20260506110028 | 57 | 359 | 4.3 | 9.6 | 0.00 | 0.00 | 0.00 | 71 | 1011.5 |
| 20260506105527 | 57 | 338 | 4.3 | 12.2 | 0.00 | 0.00 | 0.00 | 71 | 1011.2 |
| 20260506105521 | 57 | 318 | 5.2 | 9.6 | 0.00 | 0.00 | 0.00 | 71 | 1011.2 |
| 20260506104512 | 58 | 353 | 5.2 | 12.2 | 0.00 | 0.00 | 0.00 | 71 | 1011.1 |
| 20260506104002 | 58 | 18 | 5.2 | 11.3 | 0.00 | 0.00 | 0.00 | 71 | 1011.1 |
| 20260506103455 | 58 | 1 | 5.2 | 11.3 | 0.00 | 0.00 | 0.00 | 71 | 1010.8 |
| 20260506102952 | 58 | 22 | 4.3 | 9.6 | 0.00 | 0.00 | 0.00 | 71 | 1010.6 |
| 20260506102945 | 58 | 2 | 4.3 | 9.6 | 0.00 | 0.00 | 0.00 | 71 | 1010.5 |
| 20260506101934 | 58 | 1 | 5.2 | 10.4 | 0.00 | 0.00 | 0.00 | 71 | 1010.4 |
| 20260506101428 | 58 | 10 | 5.2 | 13.0 | 0.00 | 0.00 | 0.00 | 71 | 1010.4 |
| 20260506100919 | 58 | 22 | 5.2 | 13.0 | 0.00 | 0.00 | 0.00 | 71 | 1010.3 |
| 20260506100414 | 59 | 18 | 4.3 | 12.2 | 0.00 | 0.00 | 0.00 | 71 | 1010.2 |
| 20260506100408 | 59 | 345 | 2.6 | 7.8 | 0.00 | 0.00 | 0.00 | 71 | 1010.2 |
| 20260506095358 | 59 | 2 | 3.5 | 7.8 | 0.00 | 0.00 | 0.00 | 71 | 1010.0 |
| 20260506094850 | 59 | 5 | 3.5 | 7.8 | 0.00 | 0.00 | 0.00 | 71 | 1010.0 |
| 20260506094340 | 59 | 353 | 3.5 | 7.8 | 0.00 | 0.00 | 0.00 | 71 | 1010.1 |
| 20260506094331 | 59 | 8 | 3.5 | 7.8 | 0.00 | 0.00 | 0.00 | 71 | 1010.0 |
| 20260506093320 | 60 | 18 | 3.5 | 10.4 | 0.00 | 0.00 | 0.00 | 71 | 1009.9 |
| 20260506092810 | 60 | 22 | 3.5 | 10.4 | 0.00 | 0.00 | 0.00 | 71 | 1009.9 |
| 20260506092752 | 59 | 12 | 4.3 | 10.4 | 0.00 | 0.00 | 0.00 | 71 | 1009.8 |
| 20260506092356 | 60 | 11 | 4.3 | 10.4 | 0.00 | 0.00 | 0.00 | 72 | 1009.8 |
| 20260506091240 | 60 | 28 | 4.3 | 9.6 | 0.00 | 0.00 | 0.00 | 71 | 1009.9 |
| 20260506091231 | 60 | 14 | 5.2 | 8.7 | 0.00 | 0.00 | 0.00 | 71 | 1009.9 |
| 20260506090220 | 60 | 37 | 5.2 | 10.4 | 0.00 | 0.00 | 0.00 | 71 | 1009.8 |
| 20260506090211 | 60 | 16 | 4.3 | 9.6 | 0.00 | 0.00 | 0.00 | 71 | 1009.9 |
| 20260506085200 | 60 | 20 | 3.5 | 8.7 | 0.00 | 0.00 | 0.00 | 71 | 1009.8 |
| 20260506084650 | 60 | 5 | 4.3 | 9.6 | 0.00 | 0.00 | 0.00 | 71 | 1009.7 |
| 20260506084140 | 60 | 26 | 4.3 | 9.6 | 0.00 | 0.00 | 0.00 | 71 | 1009.6 |
| 20260506083630 | 60 | 42 | 4.3 | 9.6 | 0.00 | 0.00 | 0.00 | 71 | 1009.5 |
| 20260506083120 | 60 | 353 | 4.3 | 9.6 | 0.00 | 0.00 | 0.00 | 71 | 1009.5 |
| 20260506083111 | 61 | 24 | 5.2 | 9.6 | 0.00 | 0.00 | 0.00 | 71 | 1009.4 |
| 20260506082556 | 61 | 55 | 5.2 | 9.6 | 0.00 | 0.00 | 0.00 | 71 | 1009.5 |
| 20260506081554 | 61 | 6 | 4.3 | 9.6 | 0.00 | 0.00 | 0.00 | 71 | 1009.5 |
| 20260506081044 | 61 | 28 | 4.3 | 8.7 | 0.00 | 0.00 | 0.00 | 72 | 1009.4 |
| 20260506081035 | 61 | 356 | 5.2 | 9.6 | 0.00 | 0.00 | 0.00 | 71 | 1009.3 |
| 20260506073449 | 62 | 40 | 2.6 | 7.8 | 0.00 | 0.00 | 0.00 | 72 | 1009.1 |
| 20260506072948 | 62 | 6 | 3.5 | 8.7 | 0.00 | 0.00 | 0.00 | 72 | 1009.2 |
| 20260506072445 | 62 | 11 | 3.5 | 9.6 | 0.00 | 0.00 | 0.00 | 72 | 1009.3 |
| 20260506071946 | 62 | 15 | 4.3 | 8.7 | 0.00 | 0.00 | 0.00 | 72 | 1009.1 |
| 20260506071436 | 62 | 27 | 4.3 | 9.6 | 0.00 | 0.00 | 0.00 | 73 | 1009.2 |
| 20260506070926 | 62 | 35 | 3.5 | 8.7 | 0.00 | 0.00 | 0.00 | 73 | 1009.3 |
| 20260506070416 | 62 | 33 | 5.2 | 9.6 | 0.00 | 0.00 | 0.00 | 73 | 1009.2 |
| 20260506062254 | 63 | 15 | 5.2 | 10.4 | 0.00 | 0.00 | 0.00 | 71 | 1009.0 |
| 20260506061742 | 63 | 19 | 5.2 | 10.4 | 0.00 | 0.00 | 0.00 | 72 | 1009.1 |
| 20260506061733 | 62 | 357 | 6.1 | 10.4 | 0.00 | 0.00 | 0.00 | 72 | 1009.1 |
| 20260506060722 | 63 | 30 | 6.1 | 10.4 | 0.00 | 0.00 | 0.00 | 72 | 1009.0 |
| 20260506060212 | 63 | 5 | 5.2 | 11.3 | 0.00 | 0.00 | 0.00 | 71 | 1009.2 |
| 20260506051024 | 65 | 288 | 4.3 | 9.6 | 0.00 | 0.00 | 0.00 | 70 | 1009.2 |
| 20260506050514 | 65 | 12 | 3.5 | 7.8 | 0.00 | 0.00 | 0.00 | 70 | 1009.1 |
| 20260506044453 | 67 | 6 | 4.3 | 10.4 | 0.00 | 0.00 | 0.00 | 69 | 1008.9 |
| 20260506043951 | 67 | 357 | 5.2 | 10.4 | 0.00 | 0.00 | 0.00 | 69 | 1008.9 |
| 20260506043946 | 67 | 28 | 5.2 | 13.9 | 0.00 | 0.00 | 0.00 | 69 | 1009.0 |
| 20260506042937 | 67 | 332 | 6.1 | 13.9 | 0.00 | 0.00 | 0.00 | 69 | 1009.1 |
| 20260506042428 | 67 | 53 | 6.1 | 13.9 | 0.00 | 0.00 | 0.00 | 69 | 1009.0 |
| 20260506041914 | 68 | 25 | 6.1 | 13.9 | 0.00 | 0.00 | 0.00 | 68 | 1009.0 |
| 20260506041409 | 68 | 20 | 4.3 | 11.3 | 0.00 | 0.00 | 0.00 | 68 | 1008.9 |
| 20260506040906 | 69 | 6 | 4.3 | 9.6 | 0.00 | 0.00 | 0.00 | 68 | 1008.8 |
| 20260506040402 | 69 | 320 | 3.5 | 9.6 | 0.00 | 0.00 | 0.00 | 68 | 1008.8 |
| 20260506035850 | 69 | 7 | 2.6 | 7.8 | 0.00 | 0.00 | 0.00 | 68 | 1008.7 |
| 20260506035345 | 69 | 338 | 4.3 | 10.4 | 0.00 | 0.00 | 0.00 | 68 | 1008.4 |
| 20260506034839 | 69 | 10 | 5.2 | 10.4 | 0.00 | 0.00 | 0.00 | 68 | 1008.0 |
| 20260506034330 | 69 | 22 | 6.1 | 12.2 | 0.00 | 0.00 | 0.00 | 68 | 1008.3 |
| 20260506033825 | 69 | 13 | 6.1 | 12.2 | 0.00 | 0.00 | 0.00 | 67 | 1008.3 |
| 20260506033818 | 69 | 24 | 5.2 | 10.4 | 0.00 | 0.00 | 0.00 | 67 | 1008.2 |
| 20260506032806 | 69 | 28 | 6.1 | 12.2 | 0.00 | 0.00 | 0.00 | 66 | 1008.0 |
| 20260506032754 | 70 | 10 | 6.1 | 11.3 | 0.00 | 0.00 | 0.00 | 65 | 1007.8 |
| 20260506032359 | 69 | 6 | 6.1 | 12.2 | 0.00 | 0.00 | 0.00 | 65 | 1007.9 |
| 20260506031241 | 70 | 42 | 5.2 | 9.6 | 0.00 | 0.00 | 0.00 | 64 | 1007.7 |
| 20260506030733 | 71 | 0 | 4.3 | 9.6 | 0.00 | 0.00 | 0.00 | 63 | 1007.9 |
| 20260506030225 | 71 | 39 | 5.2 | 12.2 | 0.00 | 0.00 | 0.00 | 63 | 1007.6 |
| 20260506030218 | 71 | 44 | 5.2 | 12.2 | 0.00 | 0.00 | 0.00 | 63 | 1007.6 |
| 20260506025207 | 71 | 313 | 5.2 | 12.2 | 0.00 | 0.00 | 0.00 | 64 | 1007.7 |
| 20260506024657 | 71 | 12 | 4.3 | 12.2 | 0.00 | 0.00 | 0.00 | 64 | 1007.5 |
| 20260506024146 | 71 | 355 | 4.3 | 12.2 | 0.00 | 0.00 | 0.00 | 64 | 1007.4 |
| 20260506023636 | 71 | 48 | 6.1 | 12.2 | 0.00 | 0.00 | 0.00 | 64 | 1007.3 |
| 20260506023631 | 72 | 29 | 6.1 | 14.8 | 0.00 | 0.00 | 0.00 | 64 | 1007.2 |
| 20260506022115 | 73 | 8 | 5.2 | 10.4 | 0.00 | 0.00 | 0.00 | 63 | 1006.9 |
| 20260506022107 | 73 | 7 | 5.2 | 10.4 | 0.00 | 0.00 | 0.00 | 63 | 1006.8 |
| 20260506021056 | 73 | 325 | 6.1 | 12.2 | 0.00 | 0.00 | 0.00 | 64 | 1006.7 |
| 20260506021046 | 73 | 7 | 5.2 | 12.2 | 0.00 | 0.00 | 0.00 | 63 | 1006.5 |
| 20260506020036 | 74 | 5 | 4.3 | 9.6 | 0.00 | 0.00 | 0.00 | 62 | 1006.1 |
| 20260506015527 | 74 | 351 | 5.2 | 9.6 | 0.00 | 0.00 | 0.00 | 62 | 1006.1 |
| 20260506015030 | 74 | 37 | 4.3 | 9.6 | 0.00 | 0.00 | 0.00 | 62 | 1005.9 |
| 20260506015026 | 74 | 9 | 5.2 | 9.6 | 0.00 | 0.00 | 0.00 | 62 | 1005.7 |
| 20260506014026 | 75 | 53 | 3.5 | 9.6 | 0.00 | 0.00 | 0.00 | 62 | 1006.0 |
| 20260506013516 | 75 | 32 | 4.3 | 9.6 | 0.00 | 0.00 | 0.00 | 61 | 1005.7 |
| 20260506013007 | 76 | 40 | 5.2 | 11.3 | 0.00 | 0.00 | 0.00 | 61 | 1005.7 |
| 20260506012446 | 76 | 23 | 5.2 | 13.0 | 0.00 | 0.00 | 0.00 | 61 | 1005.3 |
| 20260506011946 | 76 | 9 | 5.2 | 13.0 | 0.00 | 0.00 | 0.00 | 60 | 1005.2 |
| 20260506011436 | 77 | 30 | 6.1 | 15.6 | 0.00 | 0.00 | 0.00 | 60 | 1005.2 |
| 20260506010926 | 77 | 41 | 6.1 | 15.6 | 0.00 | 0.00 | 0.00 | 60 | 1005.4 |
| 20260506010416 | 78 | 27 | 5.2 | 9.6 | 0.00 | 0.00 | 0.00 | 59 | 1005.4 |
| 20260506005905 | 78 | 17 | 5.2 | 9.6 | 0.00 | 0.00 | 0.00 | 58 | 1005.3 |
| 20260506005356 | 79 | 35 | 4.3 | 9.6 | 0.00 | 0.00 | 0.00 | 58 | 1005.1 |
| 20260506004846 | 79 | 352 | 3.5 | 8.7 | 0.00 | 0.00 | 0.00 | 58 | 1005.0 |
| 20260506004336 | 79 | 15 | 3.5 | 9.6 | 0.00 | 0.00 | 0.00 | 58 | 1004.7 |
| 20260506003826 | 80 | 349 | 4.3 | 9.6 | 0.00 | 0.00 | 0.00 | 58 | 1004.9 |
| 20260506003316 | 80 | 13 | 5.2 | 10.4 | 0.00 | 0.00 | 0.00 | 57 | 1004.9 |
| 20260506002806 | 80 | 15 | 5.2 | 10.4 | 0.00 | 0.00 | 0.00 | 56 | 1004.8 |
| 20260506002256 | 81 | 26 | 4.3 | 10.4 | 0.00 | 0.00 | 0.00 | 56 | 1004.7 |
| 20260506001746 | 82 | 28 | 4.3 | 10.4 | 0.00 | 0.00 | 0.00 | 55 | 1004.7 |
| 20260506001236 | 82 | 349 | 4.3 | 13.0 | 0.00 | 0.00 | 0.00 | 54 | 1004.6 |
| 20260506000726 | 83 | 329 | 3.5 | 13.0 | 0.00 | 0.00 | 0.00 | 55 | 1004.7 |
| 20260506000219 | 83 | 354 | 3.5 | 8.7 | 0.00 | 0.00 | 0.00 | 56 | 1004.6 |
| 20260506000207 | 83 | 15 | 5.2 | 10.4 | 0.00 | 0.00 | 0.00 | 54 | 1004.6 |
| 20260505235656 | 84 | 1 | 5.2 | 10.4 | 0.00 | 0.00 | 0.00 | 53 | 1004.4 |
| 20260505234645 | 85 | 22 | 3.5 | 9.6 | 0.00 | 0.00 | 0.00 | 52 | 1004.3 |
| 20260505234136 | 85 | 38 | 3.5 | 11.3 | 0.00 | 0.00 | 0.00 | 52 | 1004.3 |
| 20260505233626 | 86 | 26 | 3.5 | 11.3 | 0.00 | 0.00 | 0.00 | 51 | 1004.1 |
| 20260505233116 | 86 | 10 | 4.3 | 9.6 | 0.00 | 0.00 | 0.00 | 50 | 1004.0 |
| 20260505232606 | 86 | 17 | 4.3 | 9.6 | 0.00 | 0.00 | 0.00 | 49 | 1003.9 |
| 20260505232106 | 86 | 359 | 3.5 | 8.7 | 0.00 | 0.00 | 0.00 | 50 | 1003.9 |
| 20260505231556 | 86 | 359 | 3.5 | 8.7 | 0.00 | 0.00 | 0.00 | 51 | 1003.8 |
| 20260505231056 | 87 | 354 | 3.5 | 8.7 | 0.00 | 0.00 | 0.00 | 49 | 1003.7 |
| 20260505230546 | 87 | 355 | 2.6 | 7.8 | 0.00 | 0.00 | 0.00 | 50 | 1003.6 |
| 20260505230537 | 87 | 23 | 2.6 | 7.8 | 0.00 | 0.00 | 0.00 | 59 | 1003.7 |
| 20260505230026 | 88 | 188 | 2.6 | 8.7 | 0.00 | 0.00 | 0.00 | 57 | 1003.5 |
| 20260505225016 | 88 | 189 | 1.7 | 7.0 | 0.00 | 0.00 | 0.00 | 57 | 1003.3 |
| 20260505224959 | 90 | 236 | 0.9 | 4.3 | 0.00 | 0.00 | 0.00 | 47 | 1003.2 |
| 20260505224602 | 89 | 230 | 1.7 | 4.3 | 0.00 | 0.00 | 0.00 | 51 | 1003.2 |
| 20260505223446 | 89 | 262 | 0.9 | 4.3 | 0.00 | 0.00 | 0.00 | 48 | 1003.2 |
| 20260505222936 | 90 | 163 | 1.7 | 6.1 | 0.00 | 0.00 | 0.00 | 46 | 1003.1 |
| 20260505222424 | 91 | 299 | 1.7 | 6.1 | 0.00 | 0.00 | 0.00 | 46 | 1003.1 |
| 20260505221914 | 90 | 313 | 1.7 | 7.8 | 0.00 | 0.00 | 0.00 | 46 | 1003.1 |
| 20260505221402 | 90 | 281 | 1.7 | 7.8 | 0.00 | 0.00 | 0.00 | 46 | 1002.9 |
| 20260505220852 | 90 | 202 | 2.6 | 7.8 | 0.00 | 0.00 | 0.00 | 49 | 1002.9 |
| 20260505220342 | 90 | 286 | 2.6 | 7.8 | 0.00 | 0.00 | 0.00 | 49 | 1003.0 |
| 20260505215832 | 91 | 195 | 2.6 | 7.0 | 0.00 | 0.00 | 0.00 | 50 | 1003.0 |
| 20260505215323 | 90 | 232 | 1.7 | 7.0 | 0.00 | 0.00 | 0.00 | 52 | 1003.1 |
| 20260505214812 | 90 | 243 | 2.6 | 6.1 | 0.00 | 0.00 | 0.00 | 51 | 1003.0 |
| 20260505214302 | 90 | 214 | 3.5 | 9.6 | 0.00 | 0.00 | 0.00 | 51 | 1003.2 |
| 20260505214253 | 91 | 293 | 3.5 | 9.6 | 0.00 | 0.00 | 0.00 | 50 | 1003.2 |
| 20260505213242 | 90 | 247 | 2.6 | 7.8 | 0.00 | 0.00 | 0.00 | 52 | 1003.2 |
| 20260505212732 | 89 | 199 | 3.5 | 9.6 | 0.00 | 0.00 | 0.00 | 51 | 1003.2 |
| 20260505212222 | 89 | 169 | 3.5 | 10.4 | 0.00 | 0.00 | 0.00 | 52 | 1003.3 |
| 20260505211713 | 90 | 226 | 3.5 | 10.4 | 0.00 | 0.00 | 0.00 | 51 | 1003.4 |
| 20260505211202 | 90 | 240 | 3.5 | 9.6 | 0.00 | 0.00 | 0.00 | 51 | 1003.4 |
| 20260505211154 | 90 | 188 | 3.5 | 9.6 | 0.00 | 0.00 | 0.00 | 51 | 1003.5 |
| 20260505210142 | 89 | 251 | 3.5 | 8.7 | 0.00 | 0.00 | 0.00 | 53 | 1003.6 |
| 20260505205631 | 89 | 262 | 3.5 | 8.7 | 0.00 | 0.00 | 0.00 | 54 | 1003.8 |
| 20260505205124 | 89 | 207 | 3.5 | 13.9 | 0.00 | 0.00 | 0.00 | 52 | 1003.9 |
| 20260505204614 | 90 | 302 | 3.5 | 13.9 | 0.00 | 0.00 | 0.00 | 52 | 1003.8 |
| 20260505204109 | 88 | 240 | 2.6 | 8.7 | 0.00 | 0.00 | 0.00 | 56 | 1003.7 |
| 20260505203558 | 89 | 215 | 3.5 | 9.6 | 0.00 | 0.00 | 0.00 | 54 | 1003.9 |
| 20260505203052 | 89 | 288 | 3.5 | 9.6 | 0.00 | 0.00 | 0.00 | 53 | 1004.0 |
| 20260505202534 | 89 | 222 | 3.5 | 11.3 | 0.00 | 0.00 | 0.00 | 54 | 1004.1 |
| 20260505202024 | 89 | 240 | 4.3 | 11.3 | 0.00 | 0.00 | 0.00 | 53 | 1004.1 |
| 20260505201516 | 89 | 247 | 5.2 | 13.9 | 0.00 | 0.00 | 0.00 | 55 | 1004.1 |
| 20260505201006 | 89 | 262 | 4.3 | 13.9 | 0.00 | 0.00 | 0.00 | 54 | 1004.1 |
| 20260505200458 | 89 | 174 | 3.5 | 13.0 | 0.00 | 0.00 | 0.00 | 56 | 1004.3 |
| 20260505200451 | 89 | 238 | 3.5 | 8.7 | 0.00 | 0.00 | 0.00 | 57 | 1004.3 |
| 20260505195444 | 88 | 224 | 4.3 | 12.2 | 0.00 | 0.00 | 0.00 | 56 | 1004.3 |
| 20260505194934 | 88 | 188 | 5.2 | 12.2 | 0.00 | 0.00 | 0.00 | 57 | 1004.3 |
| 20260505194418 | 88 | 199 | 4.3 | 11.3 | 0.00 | 0.00 | 0.00 | 57 | 1004.3 |
| 20260505193915 | 87 | 237 | 4.3 | 10.4 | 0.00 | 0.00 | 0.00 | 57 | 1004.2 |
| 20260505193909 | 87 | 216 | 5.2 | 13.9 | 0.00 | 0.00 | 0.00 | 58 | 1004.3 |
| 20260505192902 | 87 | 289 | 5.2 | 13.9 | 0.00 | 0.00 | 0.00 | 56 | 1004.4 |
| 20260505192857 | 87 | 272 | 5.2 | 12.2 | 0.00 | 0.00 | 0.00 | 58 | 1004.3 |
| 20260505192511 | 87 | 233 | 4.3 | 12.2 | 0.00 | 0.00 | 0.00 | 59 | 1004.3 |